Flag for Brazil

Past Weather in Ribeirão Prêto, São Paulo, Brazil — Yesterday and Last 2 Weeks

Now
66 °F

Clear.


Feels Like: 66 °F
Forecast: 96 / 63 °F
Wind: No wind

Location: Leite Lopes / Ribeir
Current Time: Sep 26, 2020 at 3:32:31 am
Latest Report: Sep 26, 2020 at 3:00 am
Visibility: 10 mi
Pressure29.95 "Hg(28.09 "Hg at 549m altitude)
Humidity: 68%
Dew Point: 55 °F
Location of Ribeirão PrêtoLocation

Past Weather in Ribeirão Prêto — Graph

°F

Ribeirão Prêto Temperature Yesterday

Maximum temperature yesterday: 95 °F (at 3:00 pm)
Minimum temperature yesterday: 63 °F (at 6:00 am)
Average temperature yesterday: 79 °F

High & Low Weather Summary for the Past Weeks

 TemperatureHumidityPressure
High99 °F (Sep 11, 2:00 pm)100% (Sep 22, 5:00 am)30.21 "Hg (Sep 22, 5:00 am)
Low61 °F (Sep 22, 5:00 am)13% (Sep 11, 2:00 pm)29.83 "Hg (Sep 17, 4:00 pm)
Average77 °F47%30.03 "Hg
* Reported Sep 11 2:00 am — Sep 26 2:00 am, Ribeirão Prêto. Weather by CustomWeather, © 2020

Note: Actual official high and low records may vary slightly from our data, if they occured in-between our weather recording intervals... More about our weather records

Ribeirão Prêto Weather History for the Previous 24 Hours

Scroll right to see more
 ConditionsComfort  
Time TempWeatherWind HumidityBarometerVisibility
2:00 am
Sat, Sep 26
70 °FClear.No wind60%29.95 "Hg10 mi
1:00 am72 °FClear.2 mph57%29.95 "Hg10 mi
12:00 am73 °FClear.2 mph53%29.98 "Hg10 mi
11:00 pm
Fri, Sep 25
77 °FClear.3 mph42%29.98 "Hg10 mi
10:00 pm77 °FClear.6 mph44%29.98 "Hg10 mi
9:00 pm79 °FClear.5 mph42%29.98 "Hg10 mi
8:00 pm82 °FClear.No wind35%29.95 "Hg10 mi
7:00 pm88 °FClear.3 mph27%29.95 "Hg10 mi
6:00 pm90 °FSunny.3 mph22%29.95 "Hg10 mi
5:00 pm93 °FSunny.5 mph20%29.95 "Hg10 mi
4:00 pm93 °FSunny.5 mph20%29.95 "Hg10 mi
3:00 pm95 °FSunny.5 mph19%29.95 "Hg10 mi
2:00 pm93 °FPassing clouds.3 mph23%29.98 "HgN/A
1:00 pm91 °FPassing clouds.5 mph24%30.04 "HgN/A
12:00 pm90 °FPassing clouds.8 mph27%30.07 "HgN/A
11:00 am88 °FSunny.2 mph33%30.09 "Hg10 mi
10:00 am82 °FSunny.3 mph42%30.12 "Hg10 mi
9:00 am77 °FSunny.9 mph51%30.12 "Hg10 mi
8:00 am72 °FSunny.6 mph57%30.12 "Hg10 mi
7:00 am64 °FSunny.6 mph68%30.09 "Hg10 mi
6:00 am63 °FSunny.7 mph73%30.07 "Hg10 mi
5:00 am64 °FClear.6 mph68%30.07 "Hg10 mi
4:00 am66 °FClear.5 mph64%30.04 "Hg10 mi
3:00 am66 °FClear.6 mph68%30.04 "Hg10 mi
Weather by CustomWeather, © 2020

See weather overview